owner,sensor,date,latitude,longitude,vertical_datum,direction_of_sea_water_velocity,sea_water_speed,upward_sea_water_velocity,qcFlag 
TABS,ioos:station:wmo:42043:1,2009-03-01T00:00:00Z,28.9818,-94.9186,2.0,231.3244783,46.53509751,-99999.0,'11111222,11111222,99999999' 
TABS,ioos:station:wmo:42043:1,2009-03-01T00:30:00Z,28.9818,-94.9186,2.0,230.2972045,44.11389804,-99999.0,'11111222,11111222,99999999' 
TABS,ioos:station:wmo:42043:1,2009-03-01T01:00:00Z,28.9818,-94.9186,2.0,228.871049,51.73685147,-99999.0,'11111222,11111222,99999999' 
TABS,ioos:station:wmo:42043:1,2009-03-01T01:30:00Z,28.9818,-94.9186,2.0,227.3064358,48.13641034,-99999.0,'11111222,11111222,99999999' 
TABS,ioos:station:wmo:42043:1,2009-03-01T02:00:00Z,28.9818,-94.9186,2.0,217.9562726,57.89641267,-99999.0,'11111222,11111222,99999999' 
TABS,ioos:station:wmo:42043:1,2009-03-01T02:30:00Z,28.9818,-94.9186,2.0,234.3595021,50.04352605,-99999.0,'11111222,11111222,99999999' 
TABS,ioos:station:wmo:42043:1,2009-03-01T03:00:00Z,28.9818,-94.9186,2.0,235.2914379,47.13754448,-99999.0,'11111222,11111222,99999999' 
TABS,ioos:station:wmo:42043:1,2009-03-01T03:30:00Z,28.9818,-94.9186,2.0,237.297524,46.80978744,-99999.0,'11111222,11111222,99999999' 
TABS,ioos:station:wmo:42043:1,2009-03-01T04:00:00Z,28.9818,-94.9186,2.0,236.801838,46.81010361,-99999.0,'11111222,11111222,99999999' 
TABS,ioos:station:wmo:42043:1,2009-03-01T04:30:00Z,28.9818,-94.9186,2.0,230.3045336,46.50052043,-99999.0,'11111222,11111222,99999999' 
TABS,ioos:station:wmo:42043:1,2009-03-01T05:00:00Z,28.9818,-94.9186,2.0,238.3438369,41.17638401,-99999.0,'11111222,11111222,99999999' 
TABS,ioos:station:wmo:42043:1,2009-03-01T05:30:00Z,28.9818,-94.9186,2.0,250.4971762,34.62662559,-99999.0,'11111222,11111222,99999999' 
TABS,ioos:station:wmo:42043:1,2009-03-01T06:00:00Z,28.9818,-94.9186,2.0,269.6292979,23.2104847,-99999.0,'11111222,11111222,99999999' 
TABS,ioos:station:wmo:42043:1,2009-03-01T06:30:00Z,28.9818,-94.9186,2.0,230.9385469,44.14828196,-99999.0,'11111222,11111222,99999999' 
TABS,ioos:station:wmo:42043:1,2009-03-01T07:00:00Z,28.9818,-94.9186,2.0,238.7536527,29.59243991,-99999.0,'11111222,11111222,99999999' 
TABS,ioos:station:wmo:42043:1,2009-03-01T07:30:00Z,28.9818,-94.9186,2.0,239.0746501,25.35435663,-99999.0,'11111222,11111222,99999999' 
TABS,ioos:station:wmo:42043:1,2009-03-01T08:00:00Z,28.9818,-94.9186,2.0,242.171694,21.91431724,-99999.0,'11111222,11111222,99999999' 
TABS,ioos:station:wmo:42043:1,2009-03-01T08:30:00Z,28.9818,-94.9186,2.0,268.0677203,15.12859875,-99999.0,'11111222,11111222,99999999' 
TABS,ioos:station:wmo:42043:1,2009-03-01T09:00:00Z,28.9818,-94.9186,2.0,237.2245317,26.74828032,-99999.0,'11111222,11111222,99999999' 
TABS,ioos:station:wmo:42043:1,2009-03-01T09:30:00Z,28.9818,-94.9186,2.0,248.7122667,21.7328001,-99999.0,'11111222,11111222,99999999' 
TABS,ioos:station:wmo:42043:1,2009-03-01T10:00:00Z,28.9818,-94.9186,2.0,237.1971358,17.90509704,-99999.0,'11111222,11111222,99999999' 
TABS,ioos:station:wmo:42043:1,2009-03-01T10:30:00Z,28.9818,-94.9186,2.0,251.7146259,13.29109852,-99999.0,'11111222,11111222,99999999' 
TABS,ioos:station:wmo:42043:1,2009-03-01T11:00:00Z,28.9818,-94.9186,2.0,246.2969886,5.373267163,-99999.0,'11133222,11111222,99999999' 
TABS,ioos:station:wmo:42043:1,2009-03-01T11:30:00Z,28.9818,-94.9186,2.0,281.8846155,6.652593479,-99999.0,'11133222,11111222,99999999' 
TABS,ioos:station:wmo:42043:1,2009-03-01T12:00:00Z,28.9818,-94.9186,2.0,256.4504338,5.420867089,-99999.0,'11133222,11111222,99999999' 
TABS,ioos:station:wmo:42043:1,2009-03-01T12:30:00Z,28.9818,-94.9186,2.0,298.457371,2.980067113,-99999.0,'11133222,11111222,99999999' 
TABS,ioos:station:wmo:42043:1,2009-03-01T13:00:00Z,28.9818,-94.9186,2.0,297.432888,6.793953194,-99999.0,'11133222,11111222,99999999' 
TABS,ioos:station:wmo:42043:1,2009-03-01T13:30:00Z,28.9818,-94.9186,2.0,316.4839,9.832080146,-99999.0,'11133222,11111222,99999999' 
TABS,ioos:station:wmo:42043:1,2009-03-01T14:00:00Z,28.9818,-94.9186,2.0,339.6850623,5.011746203,-99999.0,'11133222,11111222,99999999' 
TABS,ioos:station:wmo:42043:1,2009-03-01T14:30:00Z,28.9818,-94.9186,2.0,227.3416653,26.47497875,-99999.0,'11111222,11111222,99999999' 
TABS,ioos:station:wmo:42043:1,2009-03-01T15:00:00Z,28.9818,-94.9186,2.0,225.3457823,25.75329882,-99999.0,'11111222,11111222,99999999' 
TABS,ioos:station:wmo:42043:1,2009-03-01T15:30:00Z,28.9818,-94.9186,2.0,225.8081645,22.04978458,-99999.0,'11111222,11111222,99999999' 
TABS,ioos:station:wmo:42043:1,2009-03-01T16:00:00Z,28.9818,-94.9186,2.0,222.5016628,20.76624665,-99999.0,'11111222,11111222,99999999' 
TABS,ioos:station:wmo:42043:1,2009-03-01T16:30:00Z,28.9818,-94.9186,2.0,218.9865404,15.32245737,-99999.0,'11111222,11111222,99999999' 
TABS,ioos:station:wmo:42043:1,2009-03-01T17:00:00Z,28.9818,-94.9186,2.0,225.7814477,10.88338642,-99999.0,'11111222,11111222,99999999' 
TABS,ioos:station:wmo:42043:1,2009-03-01T17:30:00Z,28.9818,-94.9186,2.0,216.1443784,11.85094933,-99999.0,'11111222,11111222,99999999' 
TABS,ioos:station:wmo:42043:1,2009-03-01T18:00:00Z,28.9818,-94.9186,2.0,222.1647434,9.578877805,-99999.0,'11133222,11111222,99999999' 
TABS,ioos:station:wmo:42043:1,2009-03-01T18:30:00Z,28.9818,-94.9186,2.0,209.1897495,9.862464195,-99999.0,'11133222,11111222,99999999' 
TABS,ioos:station:wmo:42043:1,2009-03-01T19:00:00Z,28.9818,-94.9186,2.0,213.8155183,3.791384971,-99999.0,'11133222,11111222,99999999' 
TABS,ioos:station:wmo:42043:1,2009-03-01T19:30:00Z,28.9818,-94.9186,2.0,218.540883,3.771604433,-99999.0,'11133222,11111222,99999999' 
TABS,ioos:station:wmo:42043:1,2009-03-01T20:00:00Z,28.9818,-94.9186,2.0,255.8272745,2.042155724,-99999.0,'11133222,11111222,99999999' 
TABS,ioos:station:wmo:42043:1,2009-03-01T20:30:00Z,28.9818,-94.9186,2.0,184.9987422,4.246151198,-99999.0,'11133222,11111222,99999999' 
TABS,ioos:station:wmo:42043:1,2009-03-01T21:00:00Z,28.9818,-94.9186,2.0,154.4225586,1.297112177,-99999.0,'11133222,11111222,99999999' 
TABS,ioos:station:wmo:42043:1,2009-03-01T21:30:00Z,28.9818,-94.9186,2.0,121.736597,2.034158303,-99999.0,'11133222,11111222,99999999' 
TABS,ioos:station:wmo:42043:1,2009-03-01T22:00:00Z,28.9818,-94.9186,2.0,97.09125667,2.106110159,-99999.0,'11133222,11111222,99999999' 
TABS,ioos:station:wmo:42043:1,2009-03-01T22:30:00Z,28.9818,-94.9186,2.0,152.7378968,6.985993129,-99999.0,'11133222,11111222,99999999' 
TABS,ioos:station:wmo:42043:1,2009-03-01T23:00:00Z,28.9818,-94.9186,2.0,161.9460022,7.131093885,-99999.0,'11133222,11111222,99999999' 
TABS,ioos:station:wmo:42043:1,2009-03-01T23:30:00Z,28.9818,-94.9186,2.0,172.3702552,10.8460177,-99999.0,'11111222,11111222,99999999' 
TABS,ioos:station:wmo:42043:1,2009-03-02T00:00:00Z,28.9818,-94.9186,2.0,182.0223095,11.61723719,-99999.0,'11111222,11111222,99999999' 
TABS,ioos:station:wmo:42043:1,2009-03-02T00:30:00Z,28.9818,-94.9186,2.0,191.8365372,11.94397756,-99999.0,'11111222,11111222,99999999' 
TABS,ioos:station:wmo:42043:1,2009-03-02T01:00:00Z,28.9818,-94.9186,2.0,189.7428849,21.80449954,-99999.0,'11111222,11111222,99999999' 
TABS,ioos:station:wmo:42043:1,2009-03-02T01:30:00Z,28.9818,-94.9186,2.0,204.4417133,24.02291614,-99999.0,'11111222,11111222,99999999' 
TABS,ioos:station:wmo:42043:1,2009-03-02T02:00:00Z,28.9818,-94.9186,2.0,199.2354717,24.88955604,-99999.0,'11111222,11111222,99999999' 
TABS,ioos:station:wmo:42043:1,2009-03-02T02:30:00Z,28.9818,-94.9186,2.0,206.3740058,24.17650099,-99999.0,'11111222,11111222,99999999' 
TABS,ioos:station:wmo:42043:1,2009-03-02T03:00:00Z,28.9818,-94.9186,2.0,205.1175973,26.73848537,-99999.0,'11111222,11111222,99999999' 
TABS,ioos:station:wmo:42043:1,2009-03-02T03:30:00Z,28.9818,-94.9186,2.0,210.5809747,22.09294005,-99999.0,'11111222,11111222,99999999' 
TABS,ioos:station:wmo:42043:1,2009-03-02T04:00:00Z,28.9818,-94.9186,2.0,207.9003339,17.84419794,-99999.0,'11111222,11111222,99999999' 
TABS,ioos:station:wmo:42043:1,2009-03-02T04:30:00Z,28.9818,-94.9186,2.0,206.2517808,15.55432094,-99999.0,'11111222,11111222,99999999' 
TABS,ioos:station:wmo:42043:1,2009-03-02T05:00:00Z,28.9818,-94.9186,2.0,211.7131319,19.1374502,-99999.0,'11111222,11111222,99999999' 
TABS,ioos:station:wmo:42043:1,2009-03-02T05:30:00Z,28.9818,-94.9186,2.0,209.0190939,12.63643146,-99999.0,'11111222,11111222,99999999' 
TABS,ioos:station:wmo:42043:1,2009-03-02T06:00:00Z,28.9818,-94.9186,2.0,208.9819371,9.225280484,-99999.0,'11133222,11111222,99999999' 
TABS,ioos:station:wmo:42043:1,2009-03-02T06:30:00Z,28.9818,-94.9186,2.0,216.4282138,9.346277334,-99999.0,'11133222,11111222,99999999' 
TABS,ioos:station:wmo:42043:1,2009-03-02T07:00:00Z,28.9818,-94.9186,2.0,223.3675499,5.213492112,-99999.0,'11133222,11111222,99999999' 
TABS,ioos:station:wmo:42043:1,2009-03-02T07:30:00Z,28.9818,-94.9186,2.0,204.9066835,8.500617625,-99999.0,'11133222,11111222,99999999' 
TABS,ioos:station:wmo:42043:1,2009-03-02T08:00:00Z,28.9818,-94.9186,2.0,209.378449,4.464101253,-99999.0,'11133222,11111222,99999999' 
TABS,ioos:station:wmo:42043:1,2009-03-02T08:30:00Z,28.9818,-94.9186,2.0,201.5474046,2.096520928,-99999.0,'11133222,11111222,99999999' 
TABS,ioos:station:wmo:42043:1,2009-03-02T09:00:00Z,28.9818,-94.9186,2.0,203.4732548,8.209372692,-99999.0,'11133222,11111222,99999999' 
TABS,ioos:station:wmo:42043:1,2009-03-02T09:30:00Z,28.9818,-94.9186,2.0,207.5005041,8.489246138,-99999.0,'11133222,11111222,99999999' 
TABS,ioos:station:wmo:42043:1,2009-03-02T10:00:00Z,28.9818,-94.9186,2.0,235.3956795,8.346526224,-99999.0,'11133222,11111222,99999999' 
TABS,ioos:station:wmo:42043:1,2009-03-02T10:30:00Z,28.9818,-94.9186,2.0,232.6413011,7.976289864,-99999.0,'11133222,11111222,99999999' 
TABS,ioos:station:wmo:42043:1,2009-03-02T11:00:00Z,28.9818,-94.9186,2.0,232.1839349,12.72173337,-99999.0,'11111222,11111222,99999999' 
TABS,ioos:station:wmo:42043:1,2009-03-02T11:30:00Z,28.9818,-94.9186,2.0,241.8347869,13.13531119,-99999.0,'11111222,11111222,99999999' 
TABS,ioos:station:wmo:42043:1,2009-03-02T12:00:00Z,28.9818,-94.9186,2.0,243.5839267,15.44233791,-99999.0,'11111222,11111222,99999999' 
TABS,ioos:station:wmo:42043:1,2009-03-02T12:30:00Z,28.9818,-94.9186,2.0,245.7739639,12.59956348,-99999.0,'11111222,11111222,99999999' 
TABS,ioos:station:wmo:42043:1,2009-03-02T13:00:00Z,28.9818,-94.9186,2.0,239.4314765,12.17154468,-99999.0,'11111222,11111222,99999999' 
TABS,ioos:station:wmo:42043:1,2009-03-02T13:30:00Z,28.9818,-94.9186,2.0,247.6675418,11.02706217,-99999.0,'11111222,11111222,99999999' 
TABS,ioos:station:wmo:42043:1,2009-03-02T14:00:00Z,28.9818,-94.9186,2.0,241.9515389,11.05882453,-99999.0,'11111222,11111222,99999999' 
TABS,ioos:station:wmo:42043:1,2009-03-02T14:30:00Z,28.9818,-94.9186,2.0,232.8184271,13.61820106,-99999.0,'11111222,11111222,99999999' 
TABS,ioos:station:wmo:42043:1,2009-03-02T15:00:00Z,28.9818,-94.9186,2.0,228.8466263,14.75520925,-99999.0,'11111222,11111222,99999999' 
TABS,ioos:station:wmo:42043:1,2009-03-02T15:30:00Z,28.9818,-94.9186,2.0,239.5601663,21.17924692,-99999.0,'11111222,11111222,99999999' 
TABS,ioos:station:wmo:42043:1,2009-03-02T16:00:00Z,28.9818,-94.9186,2.0,232.3075696,19.23398035,-99999.0,'11111222,11111222,99999999' 
TABS,ioos:station:wmo:42043:1,2009-03-02T16:30:00Z,28.9818,-94.9186,2.0,242.8984491,21.02890392,-99999.0,'11111222,11111222,99999999' 
TABS,ioos:station:wmo:42043:1,2009-03-02T17:00:00Z,28.9818,-94.9186,2.0,239.3104809,18.96624633,-99999.0,'11111222,11111222,99999999' 
TABS,ioos:station:wmo:42043:1,2009-03-02T17:30:00Z,28.9818,-94.9186,2.0,246.1072711,16.59178411,-99999.0,'11111222,11111222,99999999' 
TABS,ioos:station:wmo:42043:1,2009-03-02T18:00:00Z,28.9818,-94.9186,2.0,242.3716247,16.15166245,-99999.0,'11111222,11111222,99999999' 
TABS,ioos:station:wmo:42043:1,2009-03-02T18:30:00Z,28.9818,-94.9186,2.0,248.0369006,11.87155003,-99999.0,'11111222,11111222,99999999' 
TABS,ioos:station:wmo:42043:1,2009-03-02T19:00:00Z,28.9818,-94.9186,2.0,232.5770937,9.330434074,-99999.0,'11133222,11111222,99999999' 
TABS,ioos:station:wmo:42043:1,2009-03-02T19:30:00Z,28.9818,-94.9186,2.0,222.9773125,9.417457194,-99999.0,'11133222,11111222,99999999' 
TABS,ioos:station:wmo:42043:1,2009-03-02T20:00:00Z,28.9818,-94.9186,2.0,207.4936681,9.37930168,-99999.0,'11133222,11111222,99999999' 
TABS,ioos:station:wmo:42043:1,2009-03-02T20:30:00Z,28.9818,-94.9186,2.0,201.7155684,9.945853407,-99999.0,'11133222,11111222,99999999' 
TABS,ioos:station:wmo:42043:1,2009-03-02T21:00:00Z,28.9818,-94.9186,2.0,220.5263326,18.3132848,-99999.0,'11111222,11111222,99999999' 
TABS,ioos:station:wmo:42043:1,2009-03-02T21:30:00Z,28.9818,-94.9186,2.0,229.1182333,17.52493652,-99999.0,'11111222,11111222,99999999' 
TABS,ioos:station:wmo:42043:1,2009-03-02T22:00:00Z,28.9818,-94.9186,2.0,224.5261774,17.11256848,-99999.0,'11111222,11111222,99999999' 
TABS,ioos:station:wmo:42043:1,2009-03-02T22:30:00Z,28.9818,-94.9186,2.0,222.9751928,15.21229108,-99999.0,'11111222,11111222,99999999' 
TABS,ioos:station:wmo:42043:1,2009-03-02T23:00:00Z,28.9818,-94.9186,2.0,225.2535777,14.36147973,-99999.0,'11111222,11111222,99999999' 
TABS,ioos:station:wmo:42043:1,2009-03-02T23:30:00Z,28.9818,-94.9186,2.0,222.3882378,12.41554671,-99999.0,'11111222,11111222,99999999' 
TABS,ioos:station:wmo:42043:1,2009-03-03T00:00:00Z,28.9818,-94.9186,2.0,224.7472822,11.23603578,-99999.0,'11111222,11111222,99999999' 
TABS,ioos:station:wmo:42043:1,2009-03-03T00:30:00Z,28.9818,-94.9186,2.0,226.3968621,11.31,-99999.0,'11111222,11111222,99999999' 
TABS,ioos:station:wmo:42043:1,2009-03-03T01:00:00Z,28.9818,-94.9186,2.0,218.7618993,12.23467204,-99999.0,'11111222,11111222,99999999' 
TABS,ioos:station:wmo:42043:1,2009-03-03T01:30:00Z,28.9818,-94.9186,2.0,219.0459937,12.27085164,-99999.0,'11111222,11111222,99999999' 
TABS,ioos:station:wmo:42043:1,2009-03-03T02:00:00Z,28.9818,-94.9186,2.0,211.891998,14.49867925,-99999.0,'11111222,11111222,99999999' 
TABS,ioos:station:wmo:42043:1,2009-03-03T02:30:00Z,28.9818,-94.9186,2.0,216.2829986,17.77693168,-99999.0,'11111222,11111222,99999999' 
TABS,ioos:station:wmo:42043:1,2009-03-03T03:00:00Z,28.9818,-94.9186,2.0,207.5832606,20.12779173,-99999.0,'11111222,11111222,99999999' 
TABS,ioos:station:wmo:42043:1,2009-03-03T03:30:00Z,28.9818,-94.9186,2.0,211.8053328,26.14606663,-99999.0,'11111222,11111222,99999999' 
TABS,ioos:station:wmo:42043:1,2009-03-03T04:00:00Z,28.9818,-94.9186,2.0,210.0352438,27.63033297,-99999.0,'11111222,11111222,99999999' 
TABS,ioos:station:wmo:42043:1,2009-03-03T04:30:00Z,28.9818,-94.9186,2.0,211.089398,26.5308952,-99999.0,'11111222,11111222,99999999' 
TABS,ioos:station:wmo:42043:1,2009-03-03T05:00:00Z,28.9818,-94.9186,2.0,213.0178851,25.30716302,-99999.0,'11111222,11111222,99999999' 
TABS,ioos:station:wmo:42043:1,2009-03-03T05:30:00Z,28.9818,-94.9186,2.0,206.1519504,26.06875716,-99999.0,'11111222,11111222,99999999' 
TABS,ioos:station:wmo:42043:1,2009-03-03T06:00:00Z,28.9818,-94.9186,2.0,207.517093,23.67875841,-99999.0,'11111222,11111222,99999999' 
TABS,ioos:station:wmo:42043:1,2009-03-03T06:30:00Z,28.9818,-94.9186,2.0,203.1817251,22.65955207,-99999.0,'11111222,11111222,99999999' 
TABS,ioos:station:wmo:42043:1,2009-03-03T07:00:00Z,28.9818,-94.9186,2.0,200.7311259,24.85965607,-99999.0,'11111222,11111222,99999999' 
TABS,ioos:station:wmo:42043:1,2009-03-03T07:30:00Z,28.9818,-94.9186,2.0,209.9863536,22.92926514,-99999.0,'11111222,11111222,99999999' 
TABS,ioos:station:wmo:42043:1,2009-03-03T08:00:00Z,28.9818,-94.9186,2.0,211.0444225,24.27736394,-99999.0,'11111222,11111222,99999999' 
TABS,ioos:station:wmo:42043:1,2009-03-03T08:30:00Z,28.9818,-94.9186,2.0,213.3367919,24.31019745,-99999.0,'11111222,11111222,99999999' 
TABS,ioos:station:wmo:42043:1,2009-03-03T09:00:00Z,28.9818,-94.9186,2.0,210.7749874,22.41670136,-99999.0,'11111222,11111222,99999999' 
TABS,ioos:station:wmo:42043:1,2009-03-03T09:30:00Z,28.9818,-94.9186,2.0,219.7385713,20.8981937,-99999.0,'11111222,11111222,99999999' 
TABS,ioos:station:wmo:42043:1,2009-03-03T10:00:00Z,28.9818,-94.9186,2.0,221.7948039,19.73085401,-99999.0,'11111222,11111222,99999999' 
TABS,ioos:station:wmo:42043:1,2009-03-03T10:30:00Z,28.9818,-94.9186,2.0,225.87787,19.37700183,-99999.0,'11111222,11111222,99999999' 
TABS,ioos:station:wmo:42043:1,2009-03-03T11:00:00Z,28.9818,-94.9186,2.0,226.8146354,19.20051041,-99999.0,'11111222,11111222,99999999' 
TABS,ioos:station:wmo:42043:1,2009-03-03T11:30:00Z,28.9818,-94.9186,2.0,227.7001366,22.36233664,-99999.0,'11111222,11111222,99999999' 
TABS,ioos:station:wmo:42043:1,2009-03-03T12:00:00Z,28.9818,-94.9186,2.0,230.1941011,22.33731407,-99999.0,'11111222,11111222,99999999' 
TABS,ioos:station:wmo:42043:1,2009-03-03T12:30:00Z,28.9818,-94.9186,2.0,229.803917,22.3736832,-99999.0,'11111222,11111222,99999999' 
TABS,ioos:station:wmo:42043:1,2009-03-03T13:00:00Z,28.9818,-94.9186,2.0,234.7371037,20.82019212,-99999.0,'11111222,11111222,99999999' 
TABS,ioos:station:wmo:42043:1,2009-03-03T13:30:00Z,28.9818,-94.9186,2.0,237.9058233,19.9131439,-99999.0,'11111222,11111222,99999999' 
TABS,ioos:station:wmo:42043:1,2009-03-03T14:00:00Z,28.9818,-94.9186,2.0,233.2892114,18.68607235,-99999.0,'11111222,11111222,99999999' 
TABS,ioos:station:wmo:42043:1,2009-03-03T14:30:00Z,28.9818,-94.9186,2.0,233.3995959,22.5082496,-99999.0,'11111222,11111222,99999999' 
TABS,ioos:station:wmo:42043:1,2009-03-03T15:00:00Z,28.9818,-94.9186,2.0,235.8440977,20.48298074,-99999.0,'11111222,11111222,99999999' 
TABS,ioos:station:wmo:42043:1,2009-03-03T15:30:00Z,28.9818,-94.9186,2.0,227.6248912,18.68015257,-99999.0,'11111222,11111222,99999999' 
TABS,ioos:station:wmo:42043:1,2009-03-03T16:00:00Z,28.9818,-94.9186,2.0,227.6013656,21.0298193,-99999.0,'11111222,11111222,99999999' 
TABS,ioos:station:wmo:42043:1,2009-03-03T16:30:00Z,28.9818,-94.9186,2.0,228.4508725,23.02272356,-99999.0,'11111222,11111222,99999999' 
TABS,ioos:station:wmo:42043:1,2009-03-03T17:00:00Z,28.9818,-94.9186,2.0,230.5461912,26.0444735,-99999.0,'11111222,11111222,99999999' 
TABS,ioos:station:wmo:42043:1,2009-03-03T17:30:00Z,28.9818,-94.9186,2.0,231.5928882,23.34039631,-99999.0,'11111222,11111222,99999999' 
TABS,ioos:station:wmo:42043:1,2009-03-03T18:00:00Z,28.9818,-94.9186,2.0,236.5623974,20.74321576,-99999.0,'11111222,11111222,99999999' 
TABS,ioos:station:wmo:42043:1,2009-03-03T18:30:00Z,28.9818,-94.9186,2.0,234.2645229,16.86530759,-99999.0,'11111222,11111222,99999999' 
TABS,ioos:station:wmo:42043:1,2009-03-03T19:00:00Z,28.9818,-94.9186,2.0,234.8752573,15.95540347,-99999.0,'11111222,11111222,99999999' 
TABS,ioos:station:wmo:42043:1,2009-03-03T19:30:00Z,28.9818,-94.9186,2.0,268.7612382,10.64248561,-99999.0,'11111222,11111222,99999999' 
TABS,ioos:station:wmo:42043:1,2009-03-03T20:00:00Z,28.9818,-94.9186,2.0,277.6685319,8.243718821,-99999.0,'11133222,11111222,99999999' 
TABS,ioos:station:wmo:42043:1,2009-03-03T20:30:00Z,28.9818,-94.9186,2.0,277.62645,9.645309741,-99999.0,'11133222,11111222,99999999' 
TABS,ioos:station:wmo:42043:1,2009-03-03T21:00:00Z,28.9818,-94.9186,2.0,268.0269153,8.715164944,-99999.0,'11133222,11111222,99999999' 
TABS,ioos:station:wmo:42043:1,2009-03-03T21:30:00Z,28.9818,-94.9186,2.0,239.8080267,5.726857777,-99999.0,'11133222,11111222,99999999' 
TABS,ioos:station:wmo:42043:1,2009-03-03T22:00:00Z,28.9818,-94.9186,2.0,251.598516,5.353737013,-99999.0,'11133222,11111222,99999999' 
TABS,ioos:station:wmo:42043:1,2009-03-03T22:30:00Z,28.9818,-94.9186,2.0,247.5201973,4.393859351,-99999.0,'11133222,11111222,99999999' 
TABS,ioos:station:wmo:42043:1,2009-03-03T23:00:00Z,28.9818,-94.9186,2.0,264.1032998,3.991115132,-99999.0,'11133222,11111222,99999999' 
TABS,ioos:station:wmo:42043:1,2009-03-03T23:30:00Z,28.9818,-94.9186,2.0,258.4857748,7.164167781,-99999.0,'11133222,11111222,99999999' 
TABS,ioos:station:wmo:42043:1,2009-03-04T00:00:00Z,28.9818,-94.9186,2.0,252.4027944,6.053247063,-99999.0,'11133222,11111222,99999999' 
TABS,ioos:station:wmo:42043:1,2009-03-04T00:30:00Z,28.9818,-94.9186,2.0,247.753855,7.422465898,-99999.0,'11133222,11111222,99999999' 
TABS,ioos:station:wmo:42043:1,2009-03-04T01:00:00Z,28.9818,-94.9186,2.0,261.8234011,8.789340135,-99999.0,'11133222,11111222,99999999' 
TABS,ioos:station:wmo:42043:1,2009-03-04T01:30:00Z,28.9818,-94.9186,2.0,251.9031961,8.563597375,-99999.0,'11133222,11111222,99999999' 
TABS,ioos:station:wmo:42043:1,2009-03-04T02:00:00Z,28.9818,-94.9186,2.0,309.1074191,4.201202209,-99999.0,'11133222,11111222,99999999' 
TABS,ioos:station:wmo:42043:1,2009-03-04T02:30:00Z,28.9818,-94.9186,2.0,310.8536943,17.50428805,-99999.0,'11111222,11111222,99999999' 
TABS,ioos:station:wmo:42043:1,2009-03-04T03:00:00Z,28.9818,-94.9186,2.0,296.842662,24.02906781,-99999.0,'11111222,11111222,99999999' 
TABS,ioos:station:wmo:42043:1,2009-03-04T03:30:00Z,28.9818,-94.9186,2.0,290.1056862,26.03660884,-99999.0,'11111222,11111222,99999999' 
TABS,ioos:station:wmo:42043:1,2009-03-04T04:00:00Z,28.9818,-94.9186,2.0,289.400118,27.60743559,-99999.0,'11111222,11111222,99999999' 
TABS,ioos:station:wmo:42043:1,2009-03-04T04:30:00Z,28.9818,-94.9186,2.0,278.4650917,26.15491158,-99999.0,'11111222,11111222,99999999' 
TABS,ioos:station:wmo:42043:1,2009-03-04T05:00:00Z,28.9818,-94.9186,2.0,276.9601535,24.51060587,-99999.0,'11111222,11111222,99999999' 
TABS,ioos:station:wmo:42043:1,2009-03-04T05:30:00Z,28.9818,-94.9186,2.0,257.1801137,25.01348836,-99999.0,'11111222,11111222,99999999' 
TABS,ioos:station:wmo:42043:1,2009-03-04T06:00:00Z,28.9818,-94.9186,2.0,260.7609226,26.53419869,-99999.0,'11111222,11111222,99999999' 
TABS,ioos:station:wmo:42043:1,2009-03-04T06:30:00Z,28.9818,-94.9186,2.0,260.7748434,28.94433451,-99999.0,'11111222,11111222,99999999' 
TABS,ioos:station:wmo:42043:1,2009-03-04T07:00:00Z,28.9818,-94.9186,2.0,264.4759014,28.67314423,-99999.0,'11111222,11111222,99999999' 
TABS,ioos:station:wmo:42043:1,2009-03-04T07:30:00Z,28.9818,-94.9186,2.0,262.5142507,27.02026092,-99999.0,'11111222,11111222,99999999' 
TABS,ioos:station:wmo:42043:1,2009-03-04T08:00:00Z,28.9818,-94.9186,2.0,258.6940008,25.96381521,-99999.0,'11111222,11111222,99999999' 
TABS,ioos:station:wmo:42043:1,2009-03-04T08:30:00Z,28.9818,-94.9186,2.0,260.1709175,23.13963051,-99999.0,'11111222,11111222,99999999' 
TABS,ioos:station:wmo:42043:1,2009-03-04T09:00:00Z,28.9818,-94.9186,2.0,275.0652704,23.22066752,-99999.0,'11111222,11111222,99999999' 
TABS,ioos:station:wmo:42043:1,2009-03-04T09:30:00Z,28.9818,-94.9186,2.0,263.4054717,25.16648764,-99999.0,'11111222,11111222,99999999' 
TABS,ioos:station:wmo:42043:1,2009-03-04T10:00:00Z,28.9818,-94.9186,2.0,263.1800105,22.56968099,-99999.0,'11111222,11111222,99999999' 
TABS,ioos:station:wmo:42043:1,2009-03-04T10:30:00Z,28.9818,-94.9186,2.0,268.8055141,20.63448085,-99999.0,'11111222,11111222,99999999' 
TABS,ioos:station:wmo:42043:1,2009-03-04T11:00:00Z,28.9818,-94.9186,2.0,264.833329,22.09977828,-99999.0,'11111222,11111222,99999999' 
TABS,ioos:station:wmo:42043:1,2009-03-04T11:30:00Z,28.9818,-94.9186,2.0,270.2861032,18.05022438,-99999.0,'11111222,11111222,99999999' 
TABS,ioos:station:wmo:42043:1,2009-03-04T12:00:00Z,28.9818,-94.9186,2.0,275.5655067,15.67387636,-99999.0,'11111222,11111222,99999999' 
TABS,ioos:station:wmo:42043:1,2009-03-04T12:30:00Z,28.9818,-94.9186,2.0,275.6968536,12.08970223,-99999.0,'11111222,11111222,99999999' 
TABS,ioos:station:wmo:42043:1,2009-03-04T13:00:00Z,28.9818,-94.9186,2.0,306.1448928,24.80398758,-99999.0,'11111222,11111222,99999999' 
TABS,ioos:station:wmo:42043:1,2009-03-04T13:30:00Z,28.9818,-94.9186,2.0,293.8997058,28.55865893,-99999.0,'11111222,11111222,99999999' 
TABS,ioos:station:wmo:42043:1,2009-03-04T14:00:00Z,28.9818,-94.9186,2.0,289.9834807,29.02765578,-99999.0,'11111222,11111222,99999999' 
TABS,ioos:station:wmo:42043:1,2009-03-04T14:30:00Z,28.9818,-94.9186,2.0,291.396446,32.81133036,-99999.0,'11111222,11111222,99999999' 
TABS,ioos:station:wmo:42043:1,2009-03-04T15:00:00Z,28.9818,-94.9186,2.0,293.9780844,34.37657633,-99999.0,'11111222,11111222,99999999' 
TABS,ioos:station:wmo:42043:1,2009-03-04T15:30:00Z,28.9818,-94.9186,2.0,295.4179711,36.62519351,-99999.0,'11111222,11111222,99999999' 
TABS,ioos:station:wmo:42043:1,2009-03-04T16:00:00Z,28.9818,-94.9186,2.0,294.5151965,36.12667989,-99999.0,'11111222,11111222,99999999' 